Waarnemingen

Advertentie
Mijn weer
Nordkoster, Zweden (2500): temperatuur & dauwpunt: 20.05.2019 15:00:00 - 26.05.2019 15:00:00 (CEST)Nordkoster, Zweden (2500): windsnelheid & windstoten: 20.05.2019 15:00:00 - 26.05.2019 15:00:00 (CEST)Nordkoster, Zweden (2500): windrichting: 20.05.2019 15:00:00 - 26.05.2019 15:00:00 (CEST)Nordkoster, Zweden (2500): luchtdruk: 20.05.2019 15:00:00 - 26.05.2019 15:00:00 (CEST)Nordkoster, Zweden (2500): zicht: 20.05.2019 15:00:00 - 26.05.2019 15:00:00 (CEST)Nordkoster, Zweden (2500): neerslag: 20.05.2019 15:00:00 - 26.05.2019 15:00:00 (CEST)
Datum & Tijd tt [°C] td [°C] ff [km/u] ff [kn] fx [km/u] fx [kn] dd ppp [hPa] vv [km] rr [mm]
26.05.2019 15:00:00 13,5 2,1 23 13 43 23 NNW 1000,4 34 0,0
26.05.2019 14:00:00 13,3 2,5 32 17 54 29 NNW 1000,1 40 0,0
26.05.2019 13:00:00 12,4 2,8 34 19 54 29 NNW 999,4 39 0,0
26.05.2019 12:00:00 11,5 3,5 41 22 65 35 NNW 999,0 48 0,0
26.05.2019 11:00:00 12,2 0,3 29 16 43 23 NW 998,4 49 0,0
26.05.2019 10:00:00 12,3 -0,9 31 17 44 24 WNW 998,1 43 0,0
26.05.2019 09:00:00 11,5 0,6 27 15 47 26 W 997,8 46 0,0
26.05.2019 08:00:00 11,2 -0,6 33 18 53 28 WNW 997,9 46 0,0
26.05.2019 07:00:00 11,0 1,8 39 21 51 28 W 997,6 44 0,0
26.05.2019 06:00:00 11,6 5,0 31 17 49 27 W 997,8 44 0,0
26.05.2019 05:00:00 11,7 6,6 34 18 53 29 W 998,1 39 0,0
26.05.2019 04:00:00 11,7 7,8 36 19 56 30 W 998,4 27 0,0
26.05.2019 03:00:00 12,2 6,9 32 17 52 28 W 999,0 33 0,0
26.05.2019 02:00:00 12,4 7,9 36 19 51 28 W 999,5 31 0,0
26.05.2019 01:00:00 13,1 7,1 34 18 46 25 W 999,8 41 0,0
26.05.2019 00:00:00 12,6 11,0 23 12 35 19 W 1000,4 11 0,0
25.05.2019 23:00:00 12,7 11,3 11 6 42 23 W 1000,7 10 0,0
25.05.2019 22:00:00 13,0 9,3 17 9 37 20 Z 1001,3 17 0,0
25.05.2019 21:00:00 12,7 9,3 24 13 - - Z 1002,0 14 0,0
25.05.2019 20:00:00 12,3 9,7 26 14 34 19 Z 1003,0 13 0,0
25.05.2019 19:00:00 12,7 9,5 24 13 35 19 Z 1004,1 15 0,0
25.05.2019 18:00:00 13,6 10,0 27 14 34 18 Z 1004,7 17 0,0
25.05.2019 17:00:00 14,4 9,4 21 11 30 16 Z 1005,5 41 0,0
25.05.2019 16:00:00 14,6 9,4 21 11 29 16 ZZW 1006,1 42 0,0
25.05.2019 15:00:00 14,1 10,9 18 10 24 13 ZZW 1006,2 25 0,0
25.05.2019 14:00:00 14,3 10,9 16 9 24 13 Z 1006,7 34 0,0
25.05.2019 13:00:00 15,3 9,4 16 9 21 11 Z 1006,9 36 0,0
25.05.2019 12:00:00 15,2 10,4 11 6 16 9 Z 1007,4 45 0,0
25.05.2019 11:00:00 14,2 10,2 9 5 14 7 Z 1007,5 42 0,0
25.05.2019 10:00:00 13,4 10,2 7 4 13 7 ZZW 1007,4 44 0,0
25.05.2019 09:00:00 13,6 9,6 6 3 12 6 ZZW 1007,3 46 0,0
25.05.2019 08:00:00 14,0 8,0 3 1 8 4 OZO 1007,0 43 0,0
25.05.2019 07:00:00 12,5 8,8 6 3 9 5 W 1006,7 50 0,0
25.05.2019 06:00:00 12,6 9,2 3 2 7 4 NW 1006,7 50 0,0
25.05.2019 05:00:00 11,3 9,4 4 2 12 7 NW 1006,7 50 0,0
25.05.2019 04:00:00 11,4 8,8 10 5 20 11 WNW 1006,3 50 0,0
25.05.2019 03:00:00 11,5 9,2 15 8 23 12 WNW 1006,2 47 0,0
25.05.2019 02:00:00 11,6 9,7 16 9 - - WNW 1006,1 41 0,0
25.05.2019 01:00:00 11,6 9,7 16 9 23 12 W 1006,0 49 0,0
25.05.2019 00:00:00 11,7 9,1 13 7 20 11 WNW 1005,8 50 0,0
24.05.2019 23:00:00 11,8 9,0 15 8 - - WNW 1005,4 50 0,0
24.05.2019 22:00:00 11,6 8,8 13 7 20 11 WNW 1005,0 47 0,0
24.05.2019 21:00:00 12,4 7,9 13 7 22 12 NW 1004,6 50 0,0
24.05.2019 20:00:00 12,1 8,4 15 8 31 17 NNW 1004,2 50 0,0
24.05.2019 19:00:00 12,6 8,9 14 8 21 11 WNW 1003,7 46 0,0
24.05.2019 18:00:00 12,4 8,5 14 8 28 15 WNW 1003,8 40 0,0
24.05.2019 17:00:00 11,2 8,4 10 6 26 14 W 1003,7 48 0,0
24.05.2019 16:00:00 10,4 7,3 19 11 31 17 W 1003,4 37 0,0
24.05.2019 15:00:00 11,4 7,9 19 10 27 15 W 1003,1 44 0,0
24.05.2019 14:00:00 11,5 9,1 16 9 26 14 ZW 1002,9 40 0,0
24.05.2019 13:00:00 10,4 8,8 14 8 32 17 ZW 1002,8 28 0,8
24.05.2019 12:00:00 10,0 9,1 25 13 44 24 ZZW 1002,9 6 1,5
24.05.2019 11:00:00 10,1 9,2 24 13 37 20 ZZW 1003,1 11 0,4
24.05.2019 10:00:00 10,3 8,6 21 11 33 18 ZW 1003,3 29 0,0
24.05.2019 09:00:00 9,3 8,1 29 16 55 30 ZZW 1003,4 9 0,6
24.05.2019 08:00:00 9,9 9,1 34 18 50 27 ZZO 1003,1 5 2,0
24.05.2019 07:00:00 9,7 8,8 33 18 47 25 Z 1004,1 8 2,5
24.05.2019 06:00:00 9,8 8,9 34 18 46 25 Z 1005,1 6 3,4
24.05.2019 05:00:00 9,9 9,0 30 16 44 24 Z 1005,9 7 1,9
24.05.2019 04:00:00 10,1 8,7 32 17 41 22 Z 1006,6 13 0,6
24.05.2019 03:00:00 10,5 8,4 29 16 39 21 ZZW 1007,5 16 0,3
24.05.2019 02:00:00 11,0 8,6 26 14 37 20 Z 1008,2 22 0,0
24.05.2019 01:00:00 11,2 8,4 25 13 33 18 Z 1008,9 25 0,0
24.05.2019 00:00:00 11,1 8,8 22 12 32 18 Z 1009,6 21 0,0
23.05.2019 23:00:00 11,3 8,5 22 12 29 15 ZZW 1010,2 29 0,0
23.05.2019 22:00:00 11,3 8,5 21 11 31 17 ZZW 1010,4 22 0,0
23.05.2019 21:00:00 11,6 8,8 22 12 33 18 ZZW 1010,6 20 0,0
23.05.2019 20:00:00 11,7 8,7 25 14 35 19 ZZW 1010,7 18 0,0
23.05.2019 19:00:00 12,4 9,2 26 14 39 21 ZZW 1011,0 17 0,0
23.05.2019 18:00:00 13,4 10,0 27 15 42 23 Z 1011,1 16 0,0
23.05.2019 17:00:00 13,0 8,9 33 18 48 26 Z 1011,6 24 0,0
23.05.2019 16:00:00 13,7 8,7 35 19 - - Z 1011,9 25 0,0
23.05.2019 15:00:00 12,8 8,5 38 20 51 28 Z 1012,0 22 0,0
23.05.2019 14:00:00 13,5 9,4 34 18 49 26 Z 1012,4 25 0,0
23.05.2019 13:00:00 12,3 8,4 38 21 51 27 Z 1012,3 19 0,0
23.05.2019 12:00:00 12,7 8,2 33 18 45 25 Z 1012,7 25 0,0
23.05.2019 11:00:00 12,9 9,0 32 17 43 23 ZZW 1012,9 23 0,0
23.05.2019 10:00:00 12,0 7,9 29 16 40 22 ZZW 1012,8 27 0,0
23.05.2019 09:00:00 11,8 7,7 25 13 38 20 ZW 1012,4 29 0,0
23.05.2019 08:00:00 11,1 7,4 24 13 36 19 ZW 1012,4 27 0,0
23.05.2019 07:00:00 10,8 6,7 27 15 38 20 ZW 1012,1 30 0,0
23.05.2019 06:00:00 10,7 7,0 23 13 35 19 ZW 1012,2 30 0,0
23.05.2019 05:00:00 10,0 6,0 24 13 42 23 WZW 1012,2 31 0,0
23.05.2019 04:00:00 10,3 5,7 34 19 52 28 WZW 1011,9 27 0,0
23.05.2019 03:00:00 10,5 5,7 32 17 48 26 WZW 1011,6 23 0,0
23.05.2019 02:00:00 11,0 7,3 29 16 43 23 WZW 1011,3 21 0,0
23.05.2019 01:00:00 11,3 7,4 24 13 - - ZW 1011,1 18 0,0
23.05.2019 00:00:00 11,7 8,7 23 12 42 23 ZW 1011,0 17 0,0
22.05.2019 23:00:00 11,9 9,3 24 13 36 19 ZW 1010,2 17 0,0
22.05.2019 22:00:00 12,1 10,0 24 13 36 20 ZZW 1010,3 14 0,0
22.05.2019 21:00:00 12,3 10,5 24 13 37 20 ZZW 1010,1 12 0,0
22.05.2019 20:00:00 12,4 11,0 23 13 34 18 Z 1009,5 11 0,0
22.05.2019 19:00:00 12,5 11,2 26 14 35 19 Z 1009,5 12 0,0
22.05.2019 18:00:00 12,7 11,3 28 15 39 21 Z 1009,4 11 0,0
22.05.2019 17:00:00 13,0 11,2 30 16 40 22 Z 1009,3 11 0,0
22.05.2019 16:00:00 13,3 11,2 32 17 43 23 Z 1009,4 11 0,0
22.05.2019 15:00:00 14,0 11,5 31 17 50 27 Z 1009,2 16 0,0
22.05.2019 14:00:00 15,5 12,6 31 17 42 23 Z 1009,0 14 0,0
22.05.2019 13:00:00 16,6 13,5 27 14 44 24 Z 1009,0 17 0,0
22.05.2019 12:00:00 16,6 13,7 25 13 35 19 Z 1009,0 16 0,0
22.05.2019 11:00:00 16,6 14,1 15 8 26 14 ZZW 1009,0 15 0,0
22.05.2019 10:00:00 17,1 14,0 16 8 23 12 Z 1008,9 13 0,0
22.05.2019 09:00:00 15,7 14,2 11 6 16 8 Z 1008,6 7 0,0
22.05.2019 08:00:00 15,6 14,5 10 5 27 15 ZZO 1008,5 7 0,0
22.05.2019 07:00:00 16,4 14,9 9 5 15 8 ZO 1008,4 13 0,0
22.05.2019 06:00:00 15,7 14,6 11 6 26 14 ZO 1008,1 13 0,0
22.05.2019 05:00:00 16,2 14,7 20 11 29 16 ZO 1007,8 19 0,0
22.05.2019 04:00:00 16,7 14,2 17 9 25 13 ZO 1007,5 27 0,0
22.05.2019 03:00:00 17,1 13,8 16 8 24 13 ZO 1007,4 29 0,0
22.05.2019 02:00:00 17,7 14,0 19 10 29 16 OZO 1007,0 29 0,0
22.05.2019 01:00:00 18,8 14,3 22 12 27 15 O 1007,0 27 0,0
22.05.2019 00:00:00 17,6 13,9 16 8 19 10 O 1007,2 27 0,0
21.05.2019 23:00:00 18,2 13,9 14 8 19 10 ONO 1007,6 29 0,0
21.05.2019 22:00:00 19,0 13,8 11 6 21 11 ONO 1007,8 35 0,0
21.05.2019 21:00:00 19,8 13,9 14 7 22 12 ONO 1007,6 38 0,0
21.05.2019 20:00:00 21,2 13,9 15 8 27 15 O 1007,4 39 0,0
21.05.2019 19:00:00 22,4 14,5 10 5 20 11 O 1007,3 37 0,0
21.05.2019 18:00:00 24,0 14,7 13 7 17 9 O 1007,5 35 0,0
21.05.2019 17:00:00 22,5 14,6 11 6 27 15 NO 1007,7 37 0,0
21.05.2019 16:00:00 21,9 13,5 19 10 38 20 ONO 1008,3 36 0,0
21.05.2019 15:00:00 21,7 14,1 29 16 39 21 O 1008,4 32 0,0
21.05.2019 14:00:00 22,4 14,8 13 7 20 11 NNO 1008,6 33 0,0
21.05.2019 13:00:00 21,0 15,1 8 4 23 12 N 1008,9 31 0,0
21.05.2019 12:00:00 20,2 15,2 13 7 29 15 NNO 1009,1 29 0,0
21.05.2019 11:00:00 19,2 15,3 19 11 27 14 N 1009,1 21 0,0
21.05.2019 10:00:00 17,2 14,5 15 8 21 12 N 1009,5 19 0,0
21.05.2019 09:00:00 17,0 14,8 13 7 19 11 NO 1009,8 20 0,0
21.05.2019 08:00:00 15,8 14,3 11 6 20 11 NO 1009,5 16 0,0
21.05.2019 07:00:00 14,4 13,8 13 7 24 13 NNO 1009,2 11 0,0
21.05.2019 06:00:00 13,4 13,2 14 8 22 12 NNO 1009,2 5 0,0
21.05.2019 05:00:00 13,0 12,8 12 7 19 11 NNO 1009,0 2,3 0,0
21.05.2019 04:00:00 13,3 13,0 12 6 20 11 N 1009,0 2,1 0,0
21.05.2019 03:00:00 13,5 13,2 11 6 18 10 NNO 1009,2 3,1 0,0
21.05.2019 02:00:00 13,5 13,0 9 5 14 8 NNO 1009,3 2,7 0,0
21.05.2019 01:00:00 14,1 13,8 8 5 14 8 N 1009,3 6 0,0
21.05.2019 00:00:00 14,2 13,6 11 6 15 8 NNO 1009,6 8 0,0
20.05.2019 23:00:00 14,9 14,1 12 6 16 9 N 1009,5 13 0,0
20.05.2019 22:00:00 14,9 14,1 11 6 17 9 NNO 1009,5 15 0,0
20.05.2019 21:00:00 14,8 13,7 13 7 21 12 NNO 1009,2 23 0,0
20.05.2019 20:00:00 15,1 13,8 17 9 26 14 N 1009,0 29 0,0
20.05.2019 19:00:00 14,7 13,2 14 7 18 10 N 1008,8 32 0,0
20.05.2019 18:00:00 15,2 13,7 13 7 23 12 N 1009,0 22 0,0
20.05.2019 17:00:00 14,6 13,3 16 9 24 13 N 1009,2 23 0,0
20.05.2019 16:00:00 14,1 12,8 14 8 22 12 N 1009,5 31 0,0
20.05.2019 15:00:00 13,5 12,6 14 7 21 11 N 1009,5 26 0,0

tt = temperatuur
td = dauwpunt
ff = windsnelheid
fx = windstoten
dd = windrichting
ppp = luchtdruk
vv = zicht
rr = neerslag

Weerstations in de omgeving